Dewpoint
59 59 58 57 56 55 53 53 53 54 53 54 54 55 55 55 56 57 57 58 62 62 61 61 61 59 58 56 54 56 54 58 53 54 59 57 57 54 56 55 56 60 60
59 59 58 56 55 53 53 53 53 53 53 53 53 53 53 53 53 53 53 54 55 59 62 59 58 58 57 57 54 54 54 58 55 55 58 56 58 58 54 54 56 57 59
59 58 57 56 54 52 51 52 52 52 51 52 53 53 52 53 52 52 53 53 53 56 58 56 57 53 57 54 54 53 54 59 57 55 55 56 56 55 57 55 56 56 57
59 58 56 55 54 53 53 52 51 51 51 51 53 52 52 51 51 52 51 51 52 52 56 55 53 53 52 55 55 53 53 58 56 55 55 53 56 55 55 53 56 56 56
59 57 56 55 54 54 53 52 52 52 51 51 51 51 50 51 52 50 51 52 53 52 54 53 54 55 58 55 54 55 52 56 55 53 54 53 52 55 54 54 52 55 55
59 57 56 55 54 54 53 53 53 53 51 51 50 49 48 48 51 51 50 47 49 53 52 52 52 54 55 57 57 54 53 55 56 53 52 52 52 55 55 54 53 53 54
59 57 56 54 55 54 53 53 53 52 52 51 50 50 49 49 50 51 50 46 47 51 52 52 52 52 53 55 56 56 57 57 56 56 54 54 52 51 51 52 54 52 50
58 57 55 54 54 54 53 53 52 52 51 52 49 46 44 46 49 50 50 49 50 49 50 50 50 51 52 52 53 55 54 53 54 55 56 55 52 52 49 50 50 52 53
58 57 55 54 54 54 54 53 52 51 50 51 48 45 43 40 45 49 49 50 51 51 51 51 51 49 49 50 51 53 54 54 53 53 55 53 51 51 50 51 50 49 50
58 57 55 54 54 54 54 53 53 52 50 49 49 51 51 47 42 44 49 50 51 51 51 52 51 52 51 49 49 49 50 52 53 53 52 51 51 51 50 51 51 50 49
57 57 55 54 54 54 54 54 52 51 51 49 49 50 52 50 50 44 46 49 51 51 51 51 52 52 52 52 52 49 48 47 53 54 54 54 55 55 56 55 52 51 50
56 57 56 55 54 54 54 54 53 52 51 50 49 49 50 49 49 49 48 49 49 50 51 52 52 52 52 52 52 52 51 51 52 52 53 53 53 53 53 54 52 52 51
55 55 55 55 54 54 54 54 53 53 52 51 50 48 51 52 50 50 49 49 49 50 51 52 52 52 52 53 52 52 52 53 53 54 54 54 55 55 55 54 54 54 54
55 55 54 54 53 53 53 53 54 53 53 53 51 49 49 52 52 51 50 49 48 49 50 49 52 52 52 52 53 52 53 52 53 54 55 55 57 56 56 56 55 55 54
55 55 54 53 53 53 52 53 53 53 52 52 52 51 49 51 53 52 51 50 48 46 47 49 51 53 53 53 53 53 52 52 53 54 54 55 54 54 55 55 55 55 55
55 55 54 54 54 53 53 52 52 52 52 52 52 51 50 50 53 53 53 52 50 47 45 48 50 53 53 53 53 53 52 52 52 53 53 53 52 52 52 52 52 53 53
56 55 54 54 54 53 53 52 52 52 51 51 51 51 50 50 50 53 54 53 51 50 46 50 50 52 53 53 53 53 53 52 51 51 52 52 52 52 52 52 52 52 52
56 55 54 54 53 53 53 52 52 52 52 51 51 51 51 50 50 51 52 53 52 51 49 49 51 52 51 53 52 53 52 52 52 51 51 51 52 52 52 51 51 52 52
56 55 55 54 53 53 53 53 53 52 52 52 52 52 51 51 51 53 53 53 53 51 52 50 50 52 52 53 53 53 53 52 52 52 51 51 51 51 51 51 51 51 51
48 56 56 55 54 54 54 54 53 53 53 53 53 53 52 52 52 53 54 54 54 53 53 52 51 52 52 52 52 52 51 52 52 51 51 51 51 51 51 51 51 51 51
42 46 54 56 55 55 54 54 54 53 53 53 53 53 53 53 53 53 54 54 55 54 53 53 53 52 52 52 51 52 52 52 52 53 52 52 52 52 51 50 51 50 50
39 43 48 51 55 55 54 54 54 54 54 54 53 54 54 53 52 52 53 54 55 55 54 54 54 53 53 53 53 53 52 52 51 53 52 52 51 51 50 51 50 50 50
37 38 39 43 44 49 46 49 52 54 54 54 54 54 54 54 53 53 52 52 53 54 54 54 54 54 53 54 54 53 53 52 52 53 53 51 52 51 51 50 50 49 49
33 34 35 38 39 40 41 42 46 53 54 54 54 54 54 54 54 54 54 53 53 54 54 54 55 55 55 55 55 54 53 52 53 51 52 49 50 49 50 51 49 48 47
31 32 32 32 34 36 40 41 42 51 53 54 55 55 54 54 54 53 54 54 53 54 54 53 54 55 55 55 55 53 53 52 51 51 51 51 51 50 51 50 51 47 47
29 30 30 31 32 33 36 39 40 45 52 54 54 54 53 54 54 53 54 54 53 53 54 53 53 54 53 53 53 53 53 51 51 50 51 50 50 49 48 49 49 47 48
Wind_Speed
22 20 18 18 15 14 14 12 12 12 11 9 9 9 10 13 11 12 13 15 14 12 15 18 18 17 17 17 15 15 12 15 18 15 16 18 16 16 18 19 19 21 22
22 21 20 18 16 15 14 13 13 12 10 10 11 8 9 9 9 9 10 11 16 15 15 18 16 14 13 14 15 14 11 12 17 17 19 16 19 20 18 19 18 17 20
24 22 20 18 18 16 16 14 13 12 11 11 13 8 9 8 7 5 4 6 8 15 14 12 13 11 10 11 11 13 11 13 16 16 16 17 16 18 19 18 17 16 16
25 23 20 19 18 17 16 15 14 14 13 13 13 9 8 8 7 7 7 8 7 6 10 13 8 8 9 12 14 13 11 12 16 15 14 14 16 15 16 17 17 18 18
25 23 21 20 20 18 16 15 14 14 15 14 12 10 8 8 8 7 8 7 7 8 8 10 8 10 11 12 13 14 9 11 14 15 14 14 12 15 14 14 15 17 18
26 22 21 21 20 19 17 16 16 15 15 15 13 11 8 7 8 9 7 6 7 8 7 8 8 7 7 11 9 13 13 10 11 13 13 13 13 14 14 15 14 12 15
27 24 20 22 20 20 19 19 17 18 15 15 14 11 8 7 8 6 5 6 7 7 7 6 6 9 8 9 8 10 11 11 11 9 12 13 14 11 11 12 13 12 12
27 24 23 23 22 20 21 20 19 16 15 17 16 12 8 7 7 6 6 6 7 7 7 6 6 5 7 6 6 7 4 7 9 9 12 12 13 11 10 12 10 12 12
26 25 24 22 22 20 20 21 21 20 18 17 16 5 7 6 13 8 8 7 8 7 6 6 6 6 6 6 6 4 5 6 9 8 9 9 10 9 7 9 11 9 8
27 26 25 23 22 19 21 20 20 20 19 20 17 4 1 5 8 9 8 9 7 7 7 6 7 6 6 5 4 3 3 2 5 7 8 5 2 2 4 7 8 9 10
26 27 26 24 22 19 21 21 22 21 19 19 18 11 5 6 5 10 13 11 7 8 8 8 7 7 7 6 6 7 5 4 3 4 4 2 2 4 2 3 7 7 6
22 25 26 24 22 20 22 22 22 22 19 19 18 14 10 7 9 6 9 14 12 11 9 9 8 8 8 7 6 6 8 7 5 4 4 3 1 0 1 3 5 5 5
24 25 27 25 24 22 22 22 21 20 19 19 20 18 12 7 8 5 9 12 10 7 7 9 9 9 8 8 8 10 10 9 8 6 6 5 3 2 1 1 1 2 1
27 26 24 23 24 24 23 23 19 19 19 18 21 18 15 10 10 8 8 13 10 8 9 8 11 10 10 9 8 13 8 11 10 9 7 5 4 4 3 2 2 2 2
24 27 27 26 25 24 24 23 19 22 21 20 20 19 19 14 8 10 8 12 12 10 15 12 8 12 10 9 9 11 9 11 11 10 9 7 6 6 7 7 6 6 6
25 26 27 25 25 24 24 24 22 23 23 20 18 20 20 17 11 9 8 9 11 10 8 11 12 12 13 10 10 9 8 8 10 10 9 9 8 8 8 8 8 9 8
26 26 28 28 28 27 25 25 24 23 25 23 21 21 21 20 17 12 9 9 12 11 9 7 11 9 14 13 10 10 8 9 8 10 10 9 9 9 9 9 8 8 8
24 28 29 29 28 28 28 27 26 24 25 24 24 23 22 19 20 17 15 12 12 13 10 12 12 10 11 14 13 13 10 9 9 10 11 10 10 10 10 9 9 8 8
20 25 27 30 30 29 28 27 27 27 26 26 24 23 22 21 20 17 16 14 13 11 12 9 10 9 6 10 11 10 11 10 10 8 11 11 12 11 10 10 10 9 9
3 20 27 28 28 28 28 28 28 28 26 26 25 24 23 23 23 21 18 17 14 14 13 11 11 11 11 8 11 12 11 11 12 10 10 9 9 10 10 10 10 10 10
5 3 10 25 26 27 26 28 28 28 28 26 25 25 25 25 26 24 20 19 17 16 14 14 12 11 13 9 16 12 13 12 13 11 11 11 11 11 10 11 8 10 10
9 10 6 5 20 22 23 32 29 28 28 28 27 27 24 28 29 30 28 25 22 21 19 17 16 17 18 16 13 15 14 11 11 12 12 13 9 12 11 11 11 9 10
13 14 14 10 14 4 10 6 29 27 27 28 28 26 26 22 27 25 30 32 30 31 28 23 22 20 19 19 17 17 16 14 14 6 13 13 9 12 11 10 10 11 10
16 13 16 14 13 17 17 14 10 27 26 27 28 29 28 28 26 27 25 27 26 26 28 24 24 22 19 16 19 19 18 15 5 5 9 9 9 10 10 10 11 11 10
15 16 16 17 14 16 21 17 12 21 28 27 26 27 27 28 27 34 28 27 26 26 24 28 27 21 20 20 18 12 13 15 10 9 12 8 9 9 8 10 7 8 9
14 15 16 15 18 15 26 24 16 7 23 24 22 25 30 29 29 36 34 29 28 28 25 19 21 17 21 22 26 22 18 19 14 11 11 13 11 9 5 7 8 8 9
Wind_Direction
161 160 161 160 162 156 161 159 163 160 161 152 144 135 136 125 107 103 86 64 81 106 113 105 95 93 98 95 81 83 77 81 86 71 72 69 73 70 65 60 56 56 57
165 164 163 163 156 160 155 156 157 157 158 162 144 155 128 126 127 118 109 77 66 63 84 91 90 87 90 86 86 85 87 66 91 81 70 76 67 70 74 71 63 64 59
166 164 163 161 157 157 154 150 148 150 150 151 142 143 135 131 133 126 107 124 84 68 60 80 75 81 85 91 95 99 100 78 88 84 76 68 70 68 65 72 63 67 69
169 166 162 162 157 152 153 152 151 148 144 155 145 137 132 124 139 122 126 119 117 104 64 70 75 111 109 95 104 103 106 86 90 86 82 78 69 73 67 68 61 64 69
171 169 165 158 160 155 158 156 154 154 148 147 143 143 137 140 135 139 127 124 112 120 119 87 62 49 103 107 103 110 103 96 97 89 92 82 78 70 78 70 64 58 70
175 173 165 162 163 158 158 159 156 156 154 146 143 135 130 139 152 158 136 130 131 135 132 133 138 96 69 104 122 114 113 97 111 106 99 94 78 76 76 73 73 63 68
177 175 167 165 168 162 164 163 160 157 156 155 145 136 129 141 163 159 154 142 138 146 145 142 134 139 120 72 67 95 98 101 89 104 105 97 85 79 72 72 67 75 65
177 176 171 167 170 164 166 168 161 159 161 168 161 152 156 160 173 177 170 164 157 154 154 154 149 146 143 135 101 63 99 109 104 93 113 105 88 94 91 73 80 71 67
180 179 175 169 170 169 161 171 171 168 166 182 175 166 160 192 165 180 186 181 177 177 170 168 164 159 157 139 157 129 60 88 120 118 119 111 104 114 107 87 81 87 78
182 182 177 174 172 170 164 175 177 177 169 176 188 179 281 145 177 172 194 194 193 191 185 184 183 175 174 170 150 104 140 95 123 124 137 105 60 42 112 110 110 96 82
183 184 182 178 176 174 169 173 179 184 181 180 187 180 185 193 178 175 174 182 196 199 192 192 187 185 187 186 179 167 186 194 176 173 173 202 52 66 76 173 133 126 115
181 184 184 181 181 178 173 177 180 185 187 188 189 188 188 177 185 172 170 179 188 188 193 197 196 193 188 191 188 165 194 206 204 201 204 216 249 11 57 89 162 151 156
177 183 182 183 182 179 175 176 182 185 190 189 193 199 204 210 189 196 177 169 182 174 193 204 203 200 192 195 191 195 198 210 211 215 220 221 216 203 197 139 158 161 170
182 178 182 184 185 182 179 180 182 185 190 194 198 204 203 208 202 197 187 173 170 186 190 191 197 198 193 195 188 192 199 206 210 213 219 231 181 205 227 233 228 240 264
183 179 181 181 185 189 185 183 185 190 196 201 206 208 207 208 209 209 203 202 192 189 203 194 182 197 189 184 188 191 206 195 206 209 216 218 223 232 238 247 250 252 258
185 181 182 183 182 187 187 188 193 197 199 202 205 206 209 208 207 204 207 212 217 216 203 191 198 180 183 188 182 198 201 180 204 206 209 213 220 224 235 240 246 252 256
185 184 185 184 183 185 189 189 195 196 203 204 206 208 211 211 214 211 211 211 213 211 220 168 180 176 182 186 186 200 188 201 197 206 209 213 221 226 228 236 241 249 256
193 187 186 188 188 191 190 193 195 196 200 203 205 209 212 210 213 217 218 213 213 210 216 194 183 175 193 199 194 196 199 208 207 199 209 217 222 230 234 238 242 245 250
200 195 194 191 189 192 194 197 198 198 199 205 204 207 209 205 208 209 209 209 210 203 208 194 175 179 169 191 193 206 208 214 218 211 216 224 230 235 244 250 250 245 244
127 200 198 197 195 193 196 198 200 201 202 206 205 206 208 207 208 208 204 205 202 202 201 204 188 181 188 180 196 199 209 216 221 215 223 227 222 232 234 242 246 240 239
15 2 203 201 197 198 199 201 203 204 204 207 208 207 208 209 207 207 203 204 200 202 201 203 200 190 192 183 200 201 218 214 223 219 223 222 223 227 226 229 231 229 230
36 29 63 36 206 201 205 201 201 205 207 208 208 210 209 207 208 206 202 204 199 199 203 202 206 206 209 207 200 203 206 205 227 207 220 230 211 221 221 217 207 218 230
42 40 34 50 59 34 359 281 212 207 208 209 210 209 209 209 206 207 209 208 205 206 208 208 213 214 213 207 198 204 203 205 223 191 208 230 200 227 220 216 208 223 241
40 38 48 34 56 39 20 3 301 222 216 215 212 212 210 208 202 205 206 212 217 215 215 214 218 222 220 212 204 203 203 212 225 176 211 223 197 221 210 219 207 224 232
35 43 44 44 34 19 21 16 335 229 224 224 216 215 214 213 207 200 203 207 213 218 219 217 219 220 211 208 194 178 190 182 208 205 197 221 203 213 208 224 205 211 209
24 42 45 37 42 32 15 19 2 282 234 223 219 220 217 217 209 200 206 210 213 213 209 206 219 222 213 208 190 191 194 202 211 206 190 201 195 189 210 206 195 187 194